Home   Weather   Bremerhaven   Past weeks

Flag for Germany Past Weather in Bremerhaven, Bremen, Germany — Yesterday and Last 2 Weeks

Now
32 °F

Overcast.


Feels Like: 29 °F
Forecast: 30 / 35 °F
Wind: 3 mph from Northeast

Location: Nordholz

Current Time: Jan 23, 2017 at 5:36:36 am

Latest Report: Jan 23, 2017 at 4:20 am


Visibility: 4 mi

Pressure: 30.30 "Hg

Humidity: 87%

Dew Point: 28 °F

Location of BremerhavenLocation

Past Weather in Bremerhaven — Graph

°F

Bremerhaven Temperature Yesterday

Maximum temperature yesterday: 36 °F (at 12:20 am)
Minimum temperature yesterday: 30 °F (at 5:20 pm)
Average temperature yesterday: 32 °F

High & Low Weather Summary for the Past Weeks

 TemperatureHumidityPressure
High45 °F (Jan 11, 1:20 pm)100% (Jan 9, 7:20 am)30.74 "Hg (Jan 9, 7:20 am)
Low23 °F (Jan 16, 7:20 am)60% (Jan 15, 1:20 pm)29.12 "Hg (Jan 13, 3:20 am)
Average34 °F89%30.10 "Hg
* Reported Jan 8 3:20 am — Jan 23 3:20 am, Bremerhaven, Weather by CustomWeather, © 2017

Note: Actual official high and low records may vary slightly from our data, if they occured in-between our weather recording intervals... More about our weather records

Advertising

Bremerhaven Weather History for the Previous 24 Hours

Scroll right to see more
 ConditionsComfort  
Time TempWeatherWind HumidityBarometerVisibility
3:20 am
Mon, Jan 23
32 °FLow clouds.3 mph87%30.30 "Hg4 mi
2:30 am30 °FLow clouds.7 mph93%30.30 "Hg4 mi
1:52 am30 °FIce fog.7 mph93%30.30 "Hg3 mi
12:20 am30 °FIce fog.5 mph93%30.30 "Hg3 mi
11:47 pm
Sun, Jan 22
30 °FIce fog.2 mph93%30.30 "Hg3 mi
11:20 pm30 °FIce fog.5 mph93%30.30 "Hg2 mi
10:20 pm30 °FIce fog.3 mph93%30.33 "Hg2 mi
9:20 pm30 °FIce fog.3 mph93%30.33 "Hg2 mi
8:20 pm30 °FIce fog.2 mph93%30.33 "Hg2 mi
7:20 pm30 °FIce fog.3 mph93%30.33 "Hg2 mi
6:20 pm30 °FIce fog.1 mph93%30.33 "Hg2 mi
5:20 pm30 °FIce fog.3 mph93%30.33 "Hg2 mi
4:20 pm32 °FIce fog.5 mph93%30.33 "Hg2 mi
3:20 pm32 °FIce fog.2 mph93%30.33 "Hg2 mi
2:20 pm32 °FIce fog.3 mph93%30.33 "Hg2 mi
1:20 pm32 °FIce fog.5 mph93%30.33 "Hg2 mi
12:20 pm32 °FIce fog.6 mph93%30.36 "Hg3 mi
11:20 am32 °FIce fog.7 mph93%30.36 "Hg2 mi
10:20 am32 °FIce fog.8 mph93%30.39 "Hg3 mi
9:20 am32 °FIce fog.8 mph93%30.39 "Hg2 mi
8:20 am32 °FIce fog.8 mph93%30.36 "Hg2 mi
7:20 am32 °FIce fog.7 mph93%30.36 "Hg2 mi
6:20 am34 °FPassing clouds.5 mph87%30.39 "Hg4 mi
5:20 am34 °FPassing clouds.6 mph93%30.39 "Hg6 mi
Weather by CustomWeather, © 2017

See weather overviewHow to use our weather pages